EW9774 Weather Reports


time (UTC)temp
C
wind
direction
speed
KPH
gust
KPH
rain 1hr
cm
rain 24hr
cm
rain mn
cm
humidity
%
barometer
mb
20260503203057 29 95 8.0 17.7 0.00 0.00 0.00 30 1013.1
20260503201531 28 74 3.2 9.7 0.00 0.00 0.00 35 1013.3
20260503200033 28 26 4.8 11.3 0.00 0.00 0.00 36 1013.4
20260503194531 28 40 3.2 9.7 0.00 0.00 0.00 38 1013.7
20260503193037 27 35 4.8 9.7 0.00 0.00 0.00 40 1013.8
20260503191529 27 36 4.8 8.0 0.00 0.00 0.00 42 1014.1
20260503190031 26 42 3.2 11.3 0.00 0.00 0.00 46 1014.2
20260503184529 26 8 1.6 8.0 0.00 0.00 0.00 47 1014.3
20260503183028 26 65 1.6 8.0 0.00 0.00 0.00 47 1014.5
20260503181529 25 53 1.6 6.4 0.00 0.00 0.00 46 1014.6
20260503173031 23 71 1.6 4.8 0.00 0.00 0.00 50 1015.1
20260503171530 22 38 1.6 6.4 0.00 0.00 0.00 50 1015.2
20260503140108 9 180 1.6 4.8 0.00 0.00 0.00 94 1015.7
20260503081606 11 179 1.6 6.4 0.00 0.00 0.00 88 1015.2
20260503071645 12 201 1.6 3.2 0.00 0.00 0.00 85 1015.2
20260503054532 13 186 1.6 6.4 0.00 0.00 0.00 82 1015.1
20260503053030 13 180 0.0 3.2 0.00 0.00 0.00 81 1015.1
20260503051531 14 197 1.6 4.8 0.00 0.00 0.00 80 1015.0
20260503044530 15 176 1.6 4.8 0.00 0.00 0.00 77 1014.9
20260503041537 16 227 1.6 9.7 0.00 0.00 0.00 74 1014.3
20260503040039 16 175 1.6 6.4 0.00 0.00 0.00 74 1014.1
20260503033031 17 202 4.8 8.0 0.00 0.00 0.00 75 1013.6
20260503031530 18 92 0.0 6.4 0.00 0.00 0.00 73 1013.2
20260503023146 20 202 3.2 4.8 0.00 0.00 0.00 68 1012.6
20260503021533 21 188 0.0 6.4 0.00 0.00 0.00 66 1012.5
20260503020106 22 53 0.0 0.0 0.00 0.00 0.00 62 1012.4
20260503014529 22 55 0.0 1.6 0.00 0.00 0.00 57 1012.4
20260503013030 23 49 0.0 4.8 0.00 0.00 0.00 60 1012.5
20260503010031 25 360 0.0 3.2 0.00 0.00 0.00 50 1012.4
20260503004532 25 186 1.6 6.4 0.00 0.00 0.00 44 1012.4
20260503001608 26 175 1.6 8.0 0.00 0.00 0.00 40 1012.4
20260503000032 26 181 1.6 8.0 0.00 0.00 0.00 39 1012.5
20260502234531 26 115 3.2 11.3 0.00 0.00 0.00 39 1012.7
20260502233033 26 124 1.6 8.0 0.00 0.00 0.00 40 1013.0
20260502231533 26 27 0.0 6.4 0.00 0.00 0.00 39 1013.1
20260502230033 26 182 0.0 4.8 0.00 0.00 0.00 41 1013.3
20260502224539 26 35 1.6 4.8 0.00 0.00 0.00 41 1013.5
20260502223030 26 344 0.0 6.4 0.00 0.00 0.00 41 1013.8
20260502221529 26 54 1.6 6.4 0.00 0.00 0.00 41 1014.0
20260502214531 25 186 1.6 6.4 0.00 0.00 0.00 50 1014.4
20260502211530 22 70 3.2 9.7 0.00 0.00 0.00 58 1014.8
20260502210030 22 60 3.2 8.0 0.00 0.00 0.00 59 1015.0
20260502204532 21 14 1.6 8.0 0.00 0.00 0.00 64 1015.0